星链-5525 (STARLINK-5525 )

导读

STARLINK-5525是美国太空探索技术公司(SpaceX)星链互联网卫星星座的一员,于2023年7月7日发射升空,运行在近地轨道。作为星链计划的组成部分,它旨在为全球尤其是偏远地区提供高速、稳定的宽带互联网服务,是SpaceX构建全球卫星互联网星座的重要一环,助力实现全球无缝网络覆盖的目标。

Basic Information
目录编号:
57218
目录名称:
STARLINK-5525
国际标识:
2023-094A
轨道中心:
EARTH
卫星名称:
星链-5525
卫星全名:
星链-5525 (STARLINK-5525 )
卫星状态:
在轨 (已飞行1163 天)
发射日期:
2023-07-07 UTC
国别 :
美国 (US)
星等 :
--
This satellite is enrolled in the Space Conjunction Data Service (SCDS) and the current flight risk assessment level is: No High Risk
Orbit Information
数据来源 国际轨道数据 AOE轨道数据
星历时间 2026-09-12T11:37:01+0800
12小时前
查看轨道信息
2026-09-07T00:00:00+0800
5天前
查看轨道信息
半长轴 6861.203km 6861.183km
偏心率 0.0001015 0.0000967
轨道倾角 43.003° 43.002°
近地点辐角 265.471° 261.482°
升交点赤经 57.571° 88.544°
平近点角 94.603° 145.013°
近地点 482.369km 482.382km
远地点 483.763km 483.71km
周期 94.267分钟 94.267分钟
每日圈数 15.275745 15.275811
Detailed Information
固有亮度:
5
最大亮度:
2.4
卫星平台:
Starlink v1.5
覆盖范围:
全球
运营商:
太空探索技术公司
运营商所在国:
美国
制造商(研发单位):
太空探索技术公司
制造商所在国:
美国
使用方式:
暂无
Satellite Introduction
星链(Starlink)计划是由太空探索技术公司(SpaceX)提出的一个巨型低轨卫星互联网星座项目,计划在2019年至2024年间在太空搭建由约1.2万颗卫星组成的“星链”网络,其中1584颗将部署在地球上空550千米处的近地轨道,并从2020年开始工作。该卫星仍在工作。
2D Orbit Map
3D Orbit Map
Orbit Altitude Analysis Chart
Orbit Inclination Analysis Chart
Orbit Comprehensive Analysis Chart
View Comprehensive Chart
Conjunction Data List
Event ID Objects TCA Miss Dist (km) Collision Risk Probability Collision Risk Index (CRI) Action
CDM_260914-091105-721806-646621
2026-09-14T
09:11:48+0000
0.378 km
远距离
2.546102E-4 高风险 0.83
CDM_260911-025005-721806-649123
2026-09-11T
02:50:08+0000
0.332 km
远距离
2.246321E-4 高风险 0.82
CDM_260914-153405-721806-649122
2026-09-14T
15:34:35+0000
0.495 km
远距离
9.047888E-5 中风险 0.74
CDM_260914-223205-721806-646621
2026-09-14T
22:32:06+0000
1.256 km
极远距离
7.742093E-6 低风险 0.53
CDM_260915-000605-721806-646621
2026-09-15T
00:06:15+0000
1.548 km
极远距离
3.885576E-6 低风险 0.47
CDM_260914-073705-721806-646621
2026-09-14T
07:37:39+0000
1.611 km
极远距离
3.439704E-6 低风险 0.46
CDM_260914-192905-721806-649122
2026-09-14T
19:29:58+0000
1.476 km
极远距离
2.747878E-6 低风险 0.44
CDM_260914-104505-721806-646621
2026-09-14T
10:45:57+0000
2.211 km
极远距离
1.506095E-6 低风险 0.39
CDM_260914-030805-721806-506821
2026-09-14T
03:08:49+0000
2.561 km
极远距离
1.377535E-6 低风险 0.38
CDM_260912-220704-973705-721821
2026-09-12T
22:07:18+0000
2.760 km
极远距离
6.311865E-7 极低风险 0.31
Miss Distance Evolution Trend with All Objects
Collision Probability Evolution Trend with All Objects